Retour au catalogue

STARLINK-35436

ActifCommunicationsVLEO
NORAD 65932·PAYLOAD·🇺🇸 United States

Lancé Oct 8, 2025 depuis Vandenberg Space Force Base

Loading…

Prochains Passages (prochaines 24 heures)

TLE

FraisSource: CelesTrak SupGP

Époque: Sep 15, 2026, 02:57 UTC

1 65932C 25225Y   26258.12340278  .00065716  00000+0  19413-2 0  2583
2 65932  53.1596   4.8710 0001111  95.4552 279.4236 15.34362134    16

Suivez STARLINK-35436 en temps réel avec AllMySat

Download on the App Store